Flag for Switzerland Weather past 2 weeks in Zürich, Zurich, Switzerland

Now
77 °F

Partly sunny.


Feels Like: 79 °F
Forecast: 56 / 77 °F
Wind: 13 mph from Northeast

Location: Zurich-Kloten

Current Time: Jul 23, 2014 at 2:33:31 PM

Latest Report: Jul 23, 2014 at 1:50 PM


Visibility: N/A

Pressure: 29.95 "Hg

Humidity: 61%

Dew point: 63 °F

Location of ZürichLocation

Historic Weather in Zürich — Graph

°F

Zürich temperature yesterday

Maximum temperature yesterday: 66 °F (at 4:20 PM)
Minimum temperature yesterday: 61 °F (at 3:50 AM)
Average temperature yesterday: 64 °F

Past Weeks' High & Low Weather Summary

 TemperatureHumidityPressure
High93 °F (Jul 19, 6:50 PM)100% (Jul 10, 11:50 PM)30.21 "Hg (Jul 10, 11:50 PM)
Low50 °F (Jul 10, 3:20 AM)25% (Jul 18, 4:50 PM)29.83 "Hg (Jul 10, 3:20 AM)
Average65 °F79%30.01 "Hg
* Reported Jul 8 1:20 PM — Jul 23 1:20 PM, Zürich, Weather by CustomWeather, © 2014

Note: Actual official high and low records may vary slightly from our data, if they occured in-between our weather recording intervals... More about our weather records

Advertising

Zürich weather history for previous 24 hours

 ConditionsComfort  
Time TempWeatherWind HumidityBarometerVisibility
1:20 PM
Jul 23
75 °FPartly sunny.14 mph69%29.95 "HgN/A
12:20 PM72 °FPartly sunny.13 mph73%29.95 "HgN/A
11:20 AM72 °FPartly sunny.9 mph78%29.98 "Hg6 mi
7:50 AM63 °FBroken clouds.1 mph100%30.01 "Hg1 mi
7:20 AM61 °FDense fog.3 mph100%30.01 "Hg0 mi
6:50 AM61 °FPartly cloudy.2 mph100%30.01 "Hg0 mi
6:20 AM61 °FFog.2 mph100%30.01 "Hg1 mi
5:50 AM61 °FPartly cloudy.3 mph100%30.01 "Hg1 mi
5:20 AM61 °FPartly cloudy.3 mph100%30.01 "Hg1 mi
4:50 AM63 °FPartly cloudy.3 mph100%30.01 "Hg1 mi
4:20 AM63 °FPartly cloudy.3 mph100%30.01 "Hg1 mi
3:50 AM63 °FPartly cloudy.1 mph100%30.01 "Hg0 mi
3:20 AM63 °FFog.3 mph100%30.01 "Hg0 mi
2:50 AM63 °FPartly cloudy.1 mph100%30.01 "Hg0 mi
2:20 AM64 °FPartly cloudy.2 mph100%30.01 "Hg0 mi
1:50 AM63 °FPassing clouds.1 mph100%30.01 "Hg1 mi
6:50 PM
Jul 22
66 °FLight rain. Broken clouds.1 mph94%29.98 "HgN/A
6:20 PM64 °FLight rain. Broken clouds.3 mph100%29.98 "HgN/A
5:50 PM64 °FRain. Broken clouds.3 mph100%29.98 "Hg5 mi
5:20 PM64 °FRain. Broken clouds.6 mph100%29.98 "Hg4 mi
4:50 PM64 °FRain. Broken clouds.5 mph100%29.98 "Hg3 mi
4:20 PM66 °FRain. Broken clouds.5 mph94%29.98 "Hg3 mi
3:50 PM64 °FBroken clouds.5 mph100%29.98 "HgN/A
3:20 PM64 °FLight rain. Broken clouds.3 mph94%29.98 "HgN/A
2:50 PM64 °FLight rain. Broken clouds.5 mph94%29.98 "Hg6 mi
2:20 PM63 °FRain. Broken clouds.1 mph100%29.98 "Hg4 mi
Weather by CustomWeather, © 2014

See weather overviewHow to use our weather pages